Zurück zum Katalog

QPS-SAR-10 WADATSUMI-I

AktivWissenschaftVLEO
NORAD 64055·PAYLOAD·🇯🇵 Japan

Gestartet May 17, 2025 von Rocket Lab Launch Complex 1

Loading…

Nächste Überflüge (nächste 24 Stunden)

TLE

AktuellSource: Space-Track

Epoche: Sep 14, 2026, 14:55 UTC

1 64055U 25104A   26257.62178560  .00003569  00000-0  27833-3 0  9998
2 64055  42.0033 145.4521 0014012 207.8752 152.1324 15.02410427 72884

Verfolge QPS-SAR-10 WADATSUMI-I in Echtzeit mit AllMySat

Download on the App Store